Date,TemperatureHighF,TemperatureAvgF,TemperatureLowF,DewpointHighF,DewpointAvgF,DewpointLowF,HumidityHigh,HumidityAvg,HumidityLow,PressureMaxIn,PressureMinIn,WindSpeedMaxMPH,WindSpeedAvgMPH,GustSpeedMaxMPH,PrecipitationSumIn
2014-1-3,33.6,10.4,-3.6,13.5,3.2,-7.1,90,74,39,30.73,30.25,7,1,9,0.00
2014-1-4,28.8,13.4,-4.5,23.0,8.7,-8.9,90,81,70,30.34,29.98,23,6,31,0.00
2014-1-5,13.8,1.9,-11.9,3.4,-5.4,-15.7,88,72,54,30.90,30.34,22,5,29,0.00
2014-1-6,29.7,4.0,-14.1,9.0,-5.0,-18.2,87,69,38,31.09,30.90,16,2,22,0.00
2014-1-7,19.9,5.8,-8.9,11.3,0.4,-12.6,90,79,62,30.96,30.61,5,1,5,0.00
2014-1-8,31.8,19.6,7.9,23.5,15.3,5.7,93,83,65,30.61,30.31,8,0,9,0.00
2014-1-9,30.6,18.1,2.8,21.6,13.7,0.0,93,83,57,30.33,30.08,22,-2,27,0.00
2014-1-10,28.9,23.3,15.6,19.9,15.9,9.3,92,73,62,30.31,30.04,23,9,30,0.00
2014-1-11,42.4,22.1,10.9,23.2,14.4,8.1,93,73,43,30.48,30.15,17,3,23,0.00
2014-1-12,34.3,18.7,9.3,23.5,11.9,4.3,93,76,51,30.44,29.98,26,9,44,0.00
2014-1-13,30.4,17.3,6.3,15.8,8.1,-0.2,83,68,50,30.69,30.44,19,6,25,0.01
2014-1-14,32.4,14.7,-2.6,15.6,6.2,-6.0,89,70,46,30.87,30.62,27,5,28,0.00
2014-1-15,40.5,18.3,-2.0,15.4,5.8,-5.4,90,63,31,30.87,30.61,16,3,25,0.00
2014-1-16,36.9,19.8,4.8,13.1,5.6,-1.5,78,56,28,30.63,30.46,16,4,20,0.00
2014-1-17,38.5,15.1,-0.8,16.9,4.7,-4.0,88,67,30,30.72,30.56,13,2,17,0.00
2014-1-18,35.2,13.2,0.0,16.2,5.6,-3.3,90,74,41,30.81,30.63,5,1,7,0.00
2014-1-19,35.6,11.7,-3.6,18.5,4.9,-7.2,90,76,45,30.87,30.67,4,0,6,0.00
2014-1-20,39.9,14.2,-2.4,16.9,5.4,-5.8,92,71,34,30.93,30.72,9,1,15,0.00
2014-1-21,31.6,7.4,-8.1,11.8,-1.0,-11.9,88,71,37,31.03,30.80,4,0,5,0.00
2014-1-22,25.9,2.7,-12.1,7.0,-4.6,-16.2,87,73,36,30.87,30.55,5,0,6,0.00
2014-1-23,31.8,12.2,-2.2,14.0,3.3,-5.8,87,70,37,30.91,30.60,8,1,11,0.00
2014-1-24,35.8,9.7,-8.5,12.0,-1.3,-12.1,89,65,19,31.06,30.88,9,1,13,0.00
2014-1-25,31.6,12.3,-3.5,14.2,3.6,-7.6,89,70,41,30.97,30.59,4,1,6,0.00
2014-1-26,40.8,17.6,0.0,18.0,8.3,-3.3,91,71,35,30.59,30.29,20,3,26,0.00
2014-1-27,39.0,21.0,1.0,22.3,10.8,-2.4,90,68,41,30.34,30.09,26,8,38,0.00
2014-1-28,28.8,15.9,-0.8,19.4,-0.1,-14.8,87,55,15,30.56,30.17,19,6,23,0.00
2014-1-29,36.0,16.3,-5.1,20.1,5.6,-9.9,81,64,35,30.67,30.14,7,1,11,0.00
2014-1-30,42.6,33.9,24.1,31.6,27.5,18.1,96,78,56,30.13,29.58,30,5,35,0.07
2014-1-31,32.5,25.6,19.9,30.0,23.7,18.0,95,92,85,29.80,29.55,15,1,18,0.15
2014-2-1,23.9,14.0,-6.5,19.6,9.7,-10.5,93,83,63,30.35,29.80,13,2,17,0.10
2014-2-2,16.7,-3.8,-20.7,5.9,-8.8,-25.2,89,79,59,30.71,30.35,7,0,8,0.13
2014-2-3,19.0,4.7,-11.9,12.2,0.2,-15.9,90,82,60,30.69,30.26,5,1,7,0.05
2014-2-4,23.7,12.1,2.1,16.0,8.4,-1.1,90,85,71,30.32,30.09,20,3,23,0.05
2014-2-5,20.7,6.4,-4.2,9.3,-0.2,-9.4,89,75,54,30.48,30.32,13,3,16,0.02
2014-2-6,25.9,9.1,-6.2,15.6,3.5,-9.8,90,78,57,30.51,30.30,11,1,15,0.00
2014-2-7,31.3,16.8,3.9,19.9,10.0,0.5,89,75,53,30.30,30.15,21,4,23,0.02
2014-2-8,35.2,23.9,9.0,25.5,17.4,4.1,91,77,56,30.33,30.23,20,4,26,0.05
2014-2-9,40.3,32.1,26.4,31.6,27.7,23.0,94,84,60,30.24,29.96,16,3,23,0.02
2014-2-10,37.8,27.0,8.4,30.6,23.4,6.1,94,86,69,30.24,29.96,21,2,25,0.13
2014-2-11,25.5,6.5,-8.0,13.5,1.9,-11.6,91,82,56,30.76,30.25,8,0,8,0.00
2014-2-12,30.9,12.2,-5.6,18.9,6.4,-9.0,89,78,55,30.83,30.54,8,1,9,0.00
2014-2-13,44.2,32.5,21.0,30.0,24.1,16.9,89,73,46,30.55,30.06,27,6,33,0.01
2014-2-14,43.3,37.4,30.9,30.2,27.1,23.4,79,66,55,30.11,30.03,19,6,27,0.02
2014-2-15,52.2,40.6,23.9,28.9,23.2,15.1,85,53,25,30.09,30.02,16,4,26,0.00
2014-2-16,46.6,30.6,17.2,27.3,19.4,14.0,90,66,33,30.28,29.98,26,6,37,0.00
2014-2-17,35.4,22.9,7.5,19.9,11.2,1.6,86,62,39,30.46,30.22,15,2,16,0.00
2014-2-18,46.6,24.3,4.5,20.8,13.4,1.6,91,67,26,30.43,30.24,9,1,13,0.00
2014-2-19,45.7,27.4,14.7,28.8,18.1,10.2,94,71,30,30.24,29.69,31,7,43,0.00
2014-2-20,24.1,14.0,-0.6,11.3,2.1,-6.7,80,60,37,30.48,29.93,29,11,32,0.00
2014-2-21,36.0,15.9,-2.7,15.1,3.9,-7.4,86,63,26,30.54,30.31,21,2,23,0.01
2014-2-22,37.2,23.3,10.6,20.7,11.8,3.4,85,63,36,30.31,30.06,24,5,31,0.00
2014-2-23,45.3,23.0,5.2,18.7,10.6,1.6,88,63,29,30.37,30.21,9,2,14,0.00
2014-2-24,46.8,23.4,4.3,19.6,10.3,0.9,91,63,24,30.42,30.29,18,2,21,0.00
2014-2-25,47.1,26.2,6.4,20.8,13.6,3.2,90,63,30,30.37,30.12,21,3,25,0.00
2014-2-26,43.5,28.2,12.7,25.3,18.9,9.9,90,70,41,30.22,30.06,21,4,27,0.00
2014-2-27,38.5,27.5,17.4,31.8,23.2,14.2,95,84,65,30.11,29.75,19,2,28,0.01
2014-2-28,39.2,31.4,25.5,27.5,23.7,17.8,93,75,42,29.99,29.87,18,3,28,0.07
2014-3-1,38.5,29.1,22.3,31.5,25.9,20.3,95,88,65,29.98,29.78,18,3,27,0.11
2014-3-2,39.4,28.8,20.3,28.4,22.4,17.1,96,79,43,30.25,29.96,22,3,22,0.05
2014-3-3,41.9,27.5,14.5,24.6,18.2,11.5,90,70,44,30.33,30.19,16,3,22,0.00
2014-3-4,39.7,25.6,10.9,29.7,19.9,8.4,95,80,50,30.25,30.04,13,2,17,0.00
2014-3-5,41.7,25.6,7.0,28.0,15.4,4.3,95,69,24,30.45,30.19,13,2,14,0.10
2014-3-6,36.3,23.6,8.1,27.5,15.5,5.2,89,72,45,30.50,30.17,11,2,12,0.00
2014-3-7,36.0,28.9,23.0,30.2,24.2,20.1,93,83,66,30.16,29.93,23,5,25,0.03
2014-3-8,39.7,28.4,17.2,25.3,18.7,9.0,93,70,28,30.58,30.14,13,3,15,0.04
2014-3-9,42.6,23.7,7.2,24.4,14.3,4.6,91,70,38,30.71,30.49,12,2,17,0.00
2014-3-10,50.5,28.7,9.9,22.1,15.5,7.2,91,62,25,30.56,29.96,10,1,14,0.00
2014-3-11,42.3,30.4,21.7,24.6,15.6,7.0,85,56,29,30.28,29.86,26,9,38,0.00
2014-3-12,38.7,24.0,13.5,18.9,11.1,-0.8,89,63,19,30.52,30.28,11,3,15,0.00
2014-3-13,42.4,25.3,6.3,27.3,15.2,2.5,88,68,36,30.50,30.21,14,2,20,0.00
2014-3-14,44.8,28.9,15.3,26.1,18.4,12.9,93,69,28,30.25,30.10,15,3,18,0.00
2014-3-15,32.7,23.1,11.7,24.3,14.1,6.1,93,70,36,30.59,30.14,23,5,33,0.03
2014-3-16,45.5,25.3,5.5,19.0,10.7,1.8,87,59,24,30.72,30.37,16,3,18,0.00
2014-3-17,48.9,27.6,15.4,18.7,14.0,9.7,88,63,21,30.36,29.60,28,4,40,0.00
2014-4-4,39.7,32.4,24.4,23.0,18.4,12.2,86,59,32,30.29,30.13,12,3,16,0.00
2014-4-5,43.9,30.0,17.8,27.0,20.6,12.6,91,71,28,30.14,29.88,17,3,22,0.00
2014-4-6,38.1,29.2,19.9,28.4,23.0,18.0,93,79,53,30.17,30.00,25,5,31,0.01
2014-4-7,42.1,31.7,22.8,24.4,21.2,18.7,91,67,41,30.40,30.16,27,9,30,0.02
2014-4-8,54.1,35.7,18.1,26.8,19.9,15.6,92,59,24,30.48,30.32,20,4,21,0.00
2014-4-9,61.2,39.3,18.9,26.6,18.6,10.6,90,52,15,30.35,30.06,25,4,30,0.00
2014-4-10,59.7,42.2,23.5,22.6,17.8,11.5,79,46,16,30.09,29.94,24,6,31,0.00
2014-4-13,43.3,31.2,23.0,35.1,26.1,16.5,92,81,70,30.02,29.60,34,8,42,0.06
2014-4-14,36.1,25.1,17.1,16.2,10.0,-0.6,77,56,21,30.45,30.03,20,8,24,0.00
2014-4-15,51.4,31.6,11.8,16.5,11.1,0.1,86,50,13,30.45,29.96,22,4,27,0.00
2014-4-16,47.5,39.5,23.4,23.2,17.7,9.1,82,43,25,29.99,29.78,23,9,31,0.00
2014-4-17,56.1,36.6,18.0,22.8,19.1,15.3,92,56,21,30.18,29.98,22,3,26,0.00
2014-4-18,62.1,43.3,21.6,29.1,23.6,18.1,89,52,21,30.20,29.93,21,3,27,0.00
2014-4-19,55.9,45.1,35.1,38.8,33.6,28.4,88,66,39,29.98,29.84,18,4,22,0.01
2014-4-20,58.6,43.9,30.6,37.9,31.7,27.1,95,66,32,30.13,29.98,23,5,32,0.00
2014-4-21,61.5,44.4,25.9,34.5,25.3,11.1,95,55,14,30.22,30.05,20,4,27,0.00
2014-4-22,62.4,45.9,25.2,35.2,27.8,21.4,87,53,24,30.09,29.63,27,5,35,0.00
2014-4-23,51.3,42.9,28.2,30.0,22.0,10.0,69,45,28,29.90,29.51,26,10,34,0.00
2014-4-24,55.9,37.6,18.0,16.2,10.1,2.1,74,36,13,30.14,29.90,23,5,27,0.00
2014-4-25,63.1,42.9,19.8,20.3,13.7,-0.6,80,39,8,30.06,29.65,19,4,26,0.00
2014-4-26,52.2,40.3,30.2,33.6,25.4,18.5,93,59,32,29.66,29.28,28,9,40,0.00
2014-4-27,37.8,31.2,27.1,28.0,24.2,20.5,88,75,52,29.86,29.41,28,12,35,0.07
2014-4-28,37.0,30.3,23.4,24.6,17.2,4.1,86,60,25,30.24,29.85,39,14,49,0.00
2014-4-29,38.8,27.9,16.7,18.1,14.5,10.4,82,59,32,30.45,30.23,19,6,27,0.00
2014-4-30,42.4,29.7,16.7,19.0,15.8,12.0,84,59,30,30.45,30.30,13,4,17,0.00
2014-5-1,49.3,33.6,15.6,20.3,13.6,6.1,88,50,20,30.44,30.25,22,5,30,0.00
2014-5-2,59.2,40.3,17.2,23.9,19.0,12.0,83,48,22,30.33,30.08,22,6,30,0.00
2014-5-3,67.3,46.4,22.8,27.7,18.2,7.3,84,42,10,30.14,29.93,22,4,24,0.00
2014-5-4,66.7,48.4,26.4,26.4,16.1,1.6,72,35,8,30.00,29.82,27,6,32,0.00
2014-5-5,66.7,47.8,28.2,26.2,14.5,-0.8,69,34,7,29.94,29.70,18,4,26,0.00
2014-5-6,61.9,46.6,27.7,24.3,15.2,3.4,72,34,10,29.71,29.49,20,5,27,0.00
2014-5-7,53.2,42.1,23.9,26.1,15.7,2.1,80,39,13,29.74,29.51,26,9,45,0.00
2014-5-8,46.8,33.5,21.6,31.1,23.7,16.0,90,69,37,30.10,29.74,27,5,33,0.01
2014-5-9,51.6,37.8,18.9,30.6,24.7,16.9,96,64,31,30.11,29.93,24,5,32,0.01
2014-5-10,57.0,43.4,22.8,34.0,27.3,19.8,89,56,25,29.94,29.54,29,6,29,0.00
2014-5-11,47.7,39.4,30.0,37.2,31.5,26.6,90,74,46,29.81,29.40,41,6,48,0.22
2014-5-12,36.3,30.2,25.7,30.0,25.8,22.8,94,84,67,30.33,29.81,18,5,18,0.04
2014-5-13,41.7,30.1,18.3,26.8,19.5,12.0,92,68,30,30.61,30.33,21,4,23,0.09
2014-5-14,47.7,34.1,19.6,21.9,17.9,11.7,83,55,30,30.62,30.41,21,6,33,0.00
2014-5-15,55.8,40.8,23.7,28.2,23.7,19.4,87,55,30,30.43,30.21,23,6,27,0.00
2014-5-16,62.4,46.1,23.7,36.1,27.5,16.7,92,55,19,30.22,29.96,30,6,34,0.00
2014-5-17,66.6,49.6,28.2,35.4,27.1,17.6,94,50,16,29.96,29.80,28,6,33,0.00
2014-5-18,69.3,52.0,32.2,31.8,23.1,8.1,77,38,10,29.87,29.64,21,4,26,0.00
2014-5-19,68.7,51.2,27.0,27.9,18.8,4.8,77,35,8,29.78,29.68,24,4,26,0.00
2014-5-20,67.3,51.3,30.0,27.7,17.8,3.2,72,34,8,29.85,29.73,25,5,31,0.00
2014-5-21,65.8,51.6,31.5,31.6,24.8,18.0,68,38,19,29.96,29.81,21,6,37,0.00
2014-5-22,63.5,51.4,33.3,38.1,31.4,24.3,82,48,23,29.98,29.83,36,7,40,0.00
2014-5-23,64.0,50.1,38.1,40.8,37.1,23.4,91,64,22,29.95,29.76,22,6,29,0.11
2014-5-24,57.7,43.6,32.9,41.2,36.7,30.9,94,78,44,29.97,29.82,19,4,24,0.14
2014-5-25,50.5,41.2,32.5,41.2,35.8,31.1,96,82,56,30.06,29.91,18,3,26,0.55
2014-5-26,62.2,47.8,30.7,40.5,34.8,26.4,96,66,27,30.14,29.99,18,4,23,0.00
2014-5-27,72.1,53.4,32.7,42.3,35.1,27.7,94,57,20,30.14,29.96,16,3,22,0.00
2014-5-28,74.5,54.5,34.5,41.9,35.8,22.3,91,56,15,30.07,29.86,23,3,36,0.00
2014-5-29,69.4,54.5,45.5,48.4,42.5,37.0,85,66,31,29.93,29.82,21,4,26,0.01
2014-5-30,64.2,53.7,44.8,46.9,43.9,39.4,91,71,41,29.93,29.84,19,4,21,0.01
2014-5-31,73.4,55.4,35.2,47.3,34.9,25.9,95,54,18,30.01,29.75,23,4,26,0.00
2014-6-1,69.8,55.6,38.5,38.1,25.7,13.3,80,38,12,29.86,29.70,24,6,31,0.00
2014-6-2,75.7,53.2,29.1,45.1,27.1,14.5,83,44,10,30.00,29.83,12,2,16,0.00
2014-6-3,74.8,55.9,37.4,37.8,27.2,11.5,81,41,9,29.86,29.69,26,5,31,0.00
2014-6-4,74.7,54.0,30.4,33.1,23.1,11.5,85,38,10,29.88,29.70,22,4,28,0.00
2014-6-5,74.3,53.8,30.0,38.8,23.1,12.4,79,37,10,29.90,29.70,15,3,23,0.00
2014-6-6,73.2,54.1,31.8,35.6,27.2,18.7,82,42,14,29.86,29.67,25,5,29,0.00
2014-6-7,71.4,53.2,34.0,44.1,29.7,18.0,82,45,14,29.86,29.73,18,3,46,0.00
2014-6-8,60.4,45.0,33.3,41.2,33.6,27.9,93,67,33,30.06,29.71,38,6,50,0.01
2014-6-9,65.5,47.3,29.1,34.9,27.4,14.5,94,54,14,30.13,29.98,17,4,24,0.02
2014-6-10,71.4,51.0,28.2,39.6,28.7,21.0,86,48,18,30.06,29.83,25,3,38,0.00
2014-6-11,57.9,41.2,32.5,41.9,31.2,27.0,84,69,46,29.91,29.82,19,2,20,0.00
2014-6-12,73.0,60.6,35.1,42.3,33.3,25.5,90,41,17,29.97,29.80,22,5,24,0.00
2014-6-13,73.2,56.7,34.0,40.5,30.5,21.0,88,44,14,29.86,29.57,23,4,28,0.00
2014-6-14,67.3,48.8,32.5,37.8,28.8,13.5,80,52,13,29.81,29.47,34,5,47,0.02
2014-6-15,70.7,49.6,26.1,33.1,23.3,11.7,89,45,11,29.93,29.75,18,3,21,0.00
2014-6-16,68.9,53.5,32.2,30.9,20.2,9.5,69,32,11,29.78,29.64,22,5,40,0.00
2014-6-17,71.6,56.5,34.9,33.4,26.5,17.6,67,34,16,29.74,29.60,24,6,30,0.00
2014-6-18,66.4,51.4,35.8,43.5,31.8,24.6,86,50,23,29.88,29.62,27,6,39,0.02
2014-6-19,68.4,50.5,28.9,36.5,27.6,19.4,91,49,17,30.10,29.88,20,5,25,0.01
2014-6-20,74.1,53.5,28.8,38.1,28.3,21.9,85,45,16,30.14,29.89,16,4,26,0.00
2014-6-21,72.3,55.0,39.4,40.8,31.9,26.1,78,45,19,29.93,29.75,20,2,34,0.00
2014-6-22,71.1,52.6,34.9,41.5,32.6,27.0,81,50,23,29.94,29.81,18,3,30,0.01
2014-6-23,73.6,53.4,32.5,45.3,33.4,27.5,86,51,19,29.99,29.84,23,3,27,0.00
2014-6-24,76.3,56.5,31.8,41.2,30.6,19.8,88,45,13,30.01,29.81,41,3,48,0.00
2014-6-25,77.2,58.7,34.9,41.2,29.4,22.6,83,39,14,29.90,29.69,17,4,23,0.00
2014-6-26,76.1,58.2,34.3,41.2,28.7,18.5,81,37,13,29.79,29.55,21,3,22,0.00
2014-6-27,65.8,54.2,42.3,40.5,33.9,23.5,76,48,30,29.70,29.56,21,6,27,0.00
2014-6-28,72.0,55.8,38.8,39.2,31.1,23.0,85,45,18,29.90,29.69,18,6,27,0.00
2014-6-29,79.9,58.9,34.7,41.9,31.4,22.8,80,41,16,29.96,29.77,21,4,29,0.00
2014-6-30,79.5,61.6,38.8,42.8,32.1,24.8,80,39,15,29.83,29.69,27,6,32,0.00
2014-7-1,77.4,59.4,37.6,39.2,29.6,20.3,74,36,12,29.88,29.72,19,4,25,0.00
2014-7-2,78.3,59.0,35.2,46.9,30.3,18.5,80,40,11,29.97,29.82,20,4,25,0.00
2014-7-3,78.3,61.3,40.6,50.9,38.0,29.7,81,45,18,29.96,29.81,18,4,24,0.00
2014-7-4,77.5,61.7,42.6,46.9,40.9,35.4,79,50,23,30.02,29.83,26,5,29,0.00
2014-7-5,77.0,60.4,42.1,49.3,41.0,32.7,88,54,23,30.05,29.90,12,3,17,0.00
2014-7-6,81.5,61.9,40.1,51.8,39.9,32.0,87,50,17,30.04,29.83,20,3,34,0.00
2014-7-7,79.9,60.2,43.0,49.6,42.4,36.0,80,55,22,29.92,29.76,16,3,24,0.03
2014-7-8,80.2,61.1,40.6,51.4,43.1,33.6,92,57,19,29.97,29.82,22,5,40,0.00
2014-7-9,80.1,61.4,43.5,51.1,42.7,29.7,89,55,16,29.94,29.73,15,4,21,0.00
2014-7-10,78.6,58.6,43.2,51.4,45.4,38.7,87,64,29,29.91,29.73,27,3,31,0.00
2014-7-11,75.6,58.7,45.5,54.1,49.7,42.6,94,75,32,29.95,29.83,21,2,34,0.07
2014-7-12,77.2,61.4,50.4,54.3,50.5,46.2,96,71,35,29.99,29.90,28,5,30,0.07
2014-7-13,80.8,60.9,43.5,58.6,48.6,41.2,96,69,26,30.07,29.84,20,4,35,0.23
2014-7-14,79.3,63.0,47.8,54.3,46.9,38.5,96,62,24,30.02,29.82,16,3,23,0.23
2014-7-15,76.6,60.4,46.8,51.6,45.4,40.6,92,62,29,29.92,29.73,19,5,33,0.00
2014-7-16,73.9,60.2,45.0,50.7,45.2,40.3,91,61,32,29.84,29.65,24,5,28,0.02
2014-7-17,73.6,59.2,41.7,48.7,40.9,34.5,95,56,24,29.83,29.70,19,4,24,0.02
2014-7-18,76.1,59.5,39.6,48.2,38.6,34.5,89,51,23,29.92,29.77,22,5,29,0.00
2014-7-19,79.2,63.3,46.2,46.8,39.9,33.3,84,47,20,29.89,29.74,18,4,28,0.00
2014-7-20,79.5,58.2,40.6,50.5,42.8,34.9,89,61,21,29.94,29.79,18,2,25,0.00
2014-7-21,79.5,60.0,41.4,50.4,41.6,36.0,94,57,23,30.03,29.90,18,3,26,0.00
2014-7-22,86.4,64.4,37.8,45.5,34.6,20.5,86,42,9,30.15,29.93,15,3,18,0.00
2014-7-23,84.7,67.7,53.2,52.5,42.8,34.2,66,42,17,30.02,29.76,19,4,23,0.01
2014-7-24,78.1,64.8,53.4,54.9,47.8,42.4,91,57,29,29.88,29.73,22,5,30,0.03
2014-7-25,77.2,60.1,46.0,55.8,50.2,43.0,96,74,30,29.93,29.83,19,3,24,0.01
2014-7-26,77.7,59.3,43.7,59.5,50.4,42.4,98,76,31,30.02,29.88,18,3,23,0.08
2014-7-27,73.2,58.5,43.0,57.7,48.3,41.5,98,72,40,30.07,29.97,23,2,27,0.09
2014-7-28,72.7,59.2,52.5,55.9,51.3,47.1,93,76,42,30.07,29.94,16,2,19,0.16
2014-7-29,68.9,58.3,50.5,55.6,50.6,47.5,97,77,47,30.04,29.89,19,4,27,0.17
2014-7-30,73.0,59.1,45.9,52.9,48.8,44.1,96,71,42,29.97,29.83,18,4,24,0.00
2014-7-31,71.4,59.3,44.8,53.1,47.6,42.8,95,68,39,29.96,29.83,16,4,24,0.29
2014-8-1,68.7,55.4,47.5,52.5,49.0,45.1,96,81,46,30.01,29.87,14,2,26,0.12
2014-8-2,75.6,59.1,38.8,51.3,42.7,26.1,98,62,16,30.13,29.93,11,3,16,0.13
2014-8-3,75.0,62.5,47.8,52.5,47.3,40.8,93,60,30,29.97,29.76,15,3,24,0.00
2014-8-4,69.1,56.7,47.5,54.5,49.2,45.0,93,77,48,29.96,29.84,17,3,18,0.01
2014-8-5,72.1,56.8,42.4,51.8,46.0,41.2,96,71,38,30.10,29.90,16,4,19,0.17
2014-8-6,75.4,58.7,39.0,51.1,40.8,34.0,95,58,23,30.04,29.85,15,3,21,0.00
2014-8-7,74.5,59.3,42.3,49.8,39.4,31.8,88,52,22,29.91,29.74,20,4,24,0.00
2014-8-8,73.6,57.2,36.9,44.4,34.5,27.1,90,49,18,29.95,29.85,19,5,27,0.00
2014-8-9,73.9,56.3,35.8,43.9,34.8,30.6,84,50,21,30.04,29.91,22,4,27,0.00
2014-8-10,76.3,58.5,36.7,46.0,36.7,26.2,88,51,16,30.09,29.95,21,5,27,0.00
2014-8-11,76.6,58.1,37.2,45.9,39.4,32.7,93,55,21,30.13,29.93,18,4,21,0.00
2014-8-12,76.5,56.5,38.7,50.9,43.1,35.1,94,66,23,30.14,29.92,26,4,31,0.13
2014-8-13,74.8,57.1,44.2,56.8,48.7,42.4,97,76,33,30.05,29.86,19,4,23,0.24
2014-8-14,69.8,58.6,46.9,54.3,49.3,43.5,91,72,49,29.94,29.81,18,5,26,0.02
2014-8-15,76.5,57.8,39.7,50.5,43.2,38.3,97,64,27,30.05,29.88,18,3,27,0.00
2014-8-16,76.8,58.3,38.1,46.4,39.1,34.7,94,55,22,30.06,29.91,17,3,23,0.00
2014-8-17,79.3,60.4,37.2,44.2,36.7,30.0,87,48,17,30.06,29.84,18,4,26,0.00
2014-8-18,80.4,65.9,48.9,45.5,38.0,28.6,73,40,15,29.91,29.64,18,7,26,0.00
2014-8-19,70.0,60.1,51.8,54.3,45.6,39.2,85,60,36,29.70,29.55,15,3,19,0.14
2014-8-20,69.6,58.9,48.4,52.2,46.8,38.3,94,67,39,29.84,29.64,22,4,25,0.01
2014-8-21,71.4,55.0,37.9,44.1,40.0,32.0,96,62,25,29.98,29.84,17,2,22,0.00
2014-8-22,64.0,53.1,44.8,51.1,45.9,42.3,95,78,47,29.94,29.76,16,2,25,0.10
2014-8-23,65.8,50.3,38.8,48.9,44.2,37.0,97,81,49,29.98,29.79,22,3,29,0.01
2014-8-24,68.7,54.7,42.3,49.3,43.7,37.9,97,71,39,29.98,29.83,14,4,24,0.04
2014-8-25,70.5,53.4,36.1,54.0,42.6,33.4,94,70,39,29.99,29.82,14,3,17,0.02
2014-8-26,65.3,50.3,37.9,52.2,44.8,35.4,96,83,47,30.09,29.95,16,2,24,0.25
2014-8-27,62.8,52.1,43.0,49.1,44.0,38.7,97,76,43,30.07,29.94,23,4,28,0.05
2014-8-28,62.8,51.1,41.7,46.2,42.4,37.9,92,74,44,30.06,29.99,21,6,26,0.06
2014-8-29,71.2,52.7,33.4,43.3,38.3,29.7,97,64,22,30.12,29.91,12,2,17,0.00
2014-8-30,72.9,53.5,34.2,45.5,39.2,32.4,97,64,27,30.05,29.81,23,3,23,0.00
2014-8-31,72.3,56.1,35.8,43.2,35.2,30.6,93,52,23,29.84,29.72,30,7,35,0.00
2014-9-1,73.2,54.8,34.2,37.6,33.2,29.5,86,49,20,29.95,29.79,23,6,30,0.00
2014-9-2,76.8,55.1,32.0,39.4,33.7,27.7,87,50,21,30.04,29.80,18,4,25,0.00
2014-9-3,78.6,57.5,34.5,41.7,32.8,28.9,84,45,17,29.89,29.67,16,3,24,0.00
2014-9-4,65.5,49.5,35.1,46.8,37.4,28.0,95,66,31,30.01,29.79,18,3,26,0.06
2014-9-5,71.2,54.2,39.4,49.3,40.7,32.7,98,67,25,30.08,29.93,15,2,21,0.07
2014-9-6,73.0,54.5,37.6,43.3,37.0,32.9,90,57,23,30.13,29.95,22,3,24,0.00
2014-9-7,68.4,50.8,32.4,54.0,40.1,29.3,92,69,38,30.09,29.91,21,2,29,0.36
2014-9-8,59.7,53.0,46.2,52.0,48.3,42.8,96,85,69,30.02,29.84,9,2,15,0.06
2014-9-9,59.2,52.4,45.3,53.6,48.2,41.7,98,86,53,29.84,29.71,18,2,24,0.65
2014-9-10,63.0,51.2,38.5,45.0,38.5,27.0,96,67,26,30.01,29.83,16,4,25,0.00
2014-9-11,68.5,49.7,31.3,41.4,33.7,28.9,97,61,23,30.10,29.93,17,4,23,0.00
2014-9-12,66.7,48.8,30.6,38.5,31.6,26.8,95,58,23,30.12,30.00,24,4,27,0.00
2014-9-13,69.1,48.3,27.1,35.4,28.8,22.8,93,55,18,30.19,30.01,19,3,24,0.00
2014-9-14,71.4,51.0,30.4,39.4,33.6,26.8,88,56,26,30.17,29.95,16,3,22,0.00
2014-9-15,73.6,53.8,33.6,43.2,34.9,28.0,93,56,19,30.15,29.97,12,2,16,0.00
2014-9-16,74.5,54.6,35.4,44.1,35.5,29.7,90,55,20,30.14,29.90,11,2,16,0.00
2014-9-17,74.7,55.1,36.0,43.7,35.9,24.8,89,55,16,30.01,29.80,10,2,15,0.00
2014-9-18,77.9,54.8,33.4,44.1,36.8,30.4,91,56,21,29.95,29.69,11,2,16,0.00
2014-9-19,75.2,54.7,34.5,42.3,37.0,30.9,89,57,24,29.93,29.77,15,3,18,0.00
2014-9-20,77.4,54.2,35.1,53.2,41.0,31.8,92,65,25,30.06,29.88,17,2,31,0.11
2014-9-21,67.3,56.5,48.2,52.7,47.6,43.7,94,74,53,30.09,29.92,15,4,19,0.11
2014-9-22,65.8,54.3,47.8,53.2,48.4,42.4,96,82,51,29.99,29.86,19,3,19,0.34
2014-9-23,66.7,52.9,38.8,47.3,41.4,35.8,92,68,38,30.09,29.96,17,4,23,0.01
2014-9-24,73.0,51.6,32.7,46.8,37.8,27.9,97,66,19,30.21,30.03,14,2,15,0.00
2014-9-25,75.4,53.4,33.6,46.0,37.7,29.1,95,62,19,30.18,29.93,14,2,16,0.00
2014-9-26,74.1,53.2,34.3,44.8,38.4,31.8,94,63,25,30.04,29.81,11,2,15,0.00
2014-9-27,75.4,54.7,33.8,45.9,38.9,31.3,94,60,29,29.92,29.65,23,5,32,0.00
2014-9-28,59.4,50.3,44.8,46.8,42.8,40.1,90,76,49,29.88,29.69,18,4,26,0.14
2014-9-29,49.1,40.6,34.2,43.0,37.7,32.5,97,89,69,29.99,29.81,19,2,34,0.28
2014-9-30,52.3,39.6,30.6,37.4,33.4,28.8,96,80,54,30.01,29.88,13,2,17,0.00
2014-10-1,47.7,36.2,28.8,39.2,32.7,27.5,97,87,63,30.12,29.90,16,3,29,0.03
2014-10-2,51.1,36.6,24.4,30.7,25.2,11.8,95,68,22,30.38,30.12,15,4,21,0.06
2014-10-3,57.0,38.2,21.0,30.7,22.6,15.6,96,61,20,30.48,30.35,21,4,27,0.00
2014-10-4,60.6,39.5,21.6,30.2,24.8,18.9,93,61,22,30.39,30.12,19,3,25,0.00
2014-10-5,61.5,41.6,22.3,33.4,27.3,19.9,93,62,28,30.22,30.07,16,4,23,0.00
2014-10-6,65.5,43.7,22.8,34.0,27.2,19.0,94,61,17,30.19,30.02,16,3,24,0.00
2014-10-7,65.7,43.2,23.4,32.4,27.0,21.2,94,60,22,30.19,30.03,14,2,14,0.00
2014-10-8,64.6,47.1,29.5,36.3,31.1,24.8,88,58,25,30.12,29.91,14,3,16,0.00
2014-10-9,50.7,45.2,41.7,45.0,39.6,32.7,96,81,58,29.92,29.76,12,2,15,0.16
2014-10-10,54.3,46.2,38.5,43.2,39.7,36.9,95,79,56,30.05,29.92,11,3,15,0.02
2014-10-11,58.1,42.3,30.0,41.5,34.4,28.9,97,77,37,30.16,29.90,18,3,24,0.03
2014-10-12,48.9,37.1,31.5,35.6,30.7,24.8,92,78,39,30.14,29.67,29,7,36,0.09
2014-10-13,47.7,36.0,24.1,28.6,24.7,19.8,91,66,38,30.35,30.14,18,5,26,0.00
2014-10-14,65.1,37.6,18.0,30.6,23.8,15.6,94,65,18,30.48,30.24,9,2,11,0.00
2014-10-15,65.8,39.5,20.1,33.3,25.6,17.4,95,64,18,30.33,30.06,16,2,24,0.00
2014-10-16,64.9,41.7,21.9,31.8,24.8,18.9,92,59,19,30.22,30.00,16,2,19,0.00
2014-10-17,63.7,40.7,21.6,30.0,23.5,11.3,93,58,13,30.19,30.04,12,1,14,0.00
2014-10-18,61.5,45.1,31.5,36.5,30.8,26.1,86,60,29,30.18,29.98,11,1,16,0.00
2014-10-19,63.0,46.3,30.9,38.1,34.3,28.9,94,66,33,30.10,29.94,10,2,14,0.00
2014-10-20,63.1,43.4,27.3,38.5,32.5,25.5,96,70,32,30.16,30.00,16,2,20,0.00
2014-10-21,59.4,41.0,29.5,43.2,35.2,27.7,95,82,41,30.09,29.92,13,2,22,0.02
2014-10-22,54.7,39.9,27.9,41.0,32.8,26.6,97,78,46,30.24,30.05,15,2,18,0.01
2014-10-23,62.2,39.9,22.3,35.6,28.1,20.7,97,69,28,30.36,30.19,15,2,19,0.00
2014-10-24,67.3,40.6,20.5,30.2,23.4,16.7,95,59,15,30.44,30.26,15,2,18,0.00
2014-10-25,67.3,40.6,18.9,29.8,23.4,15.3,91,58,16,30.43,30.13,11,2,15,0.00
2014-10-26,63.9,41.6,22.8,36.0,23.5,14.9,92,56,15,30.15,29.81,18,3,26,0.00
2014-10-27,49.6,38.7,21.2,34.0,23.4,14.2,79,56,36,30.13,29.78,22,7,31,0.00
2014-10-28,54.9,33.4,17.6,15.8,7.7,-9.2,80,44,7,30.42,30.13,21,3,24,0.00
2014-10-29,58.5,33.2,11.7,16.7,11.8,5.4,77,47,16,30.51,30.33,17,3,22,0.00
2014-10-30,62.8,36.4,16.3,22.8,15.5,10.8,80,49,14,30.51,30.30,18,2,18,0.00
2014-10-31,61.9,37.4,15.1,31.5,19.1,10.4,85,53,20,30.41,30.12,19,3,24,0.00
2014-11-1,62.8,46.1,29.7,35.2,28.1,19.2,79,54,19,30.12,29.76,27,8,32,0.00
2014-11-2,45.9,39.1,25.9,37.0,32.5,23.5,94,78,60,29.81,29.71,19,4,24,0.07
2014-11-3,39.4,30.7,21.9,27.3,23.3,19.4,94,75,49,30.32,29.81,16,3,16,0.00
2014-11-4,45.9,28.3,16.2,23.4,16.8,7.9,94,67,22,30.56,30.32,12,2,15,0.00
2014-11-5,55.2,29.7,10.8,22.8,15.4,7.7,91,61,23,30.68,30.48,12,2,17,0.00
2014-11-6,60.6,33.5,13.5,22.8,16.8,10.4,91,58,19,30.75,30.46,13,2,17,0.00
2014-11-7,57.4,33.4,14.2,22.5,17.8,10.8,90,59,22,30.49,30.25,21,4,28,0.00
2014-11-8,58.6,32.1,14.2,23.9,15.6,9.5,93,59,14,30.56,30.35,14,2,21,0.00
2014-11-9,58.1,31.0,11.7,15.8,9.4,-1.7,83,49,9,30.42,29.94,16,2,21,0.00
2014-11-10,55.6,31.7,14.5,26.8,13.8,4.3,82,52,18,29.95,29.64,34,8,45,0.00
2014-11-11,49.8,28.6,6.4,18.3,9.5,2.7,86,50,19,30.02,29.91,27,6,35,0.00
2014-11-12,43.2,30.4,20.5,26.8,18.9,12.6,76,62,44,30.13,29.81,24,7,32,0.00
2014-11-13,32.5,24.8,14.9,30.6,21.9,11.3,96,88,73,30.23,30.10,7,1,10,0.10
2014-11-14,36.3,29.4,19.2,31.3,27.2,17.2,96,91,76,30.17,29.93,8,1,12,0.20
2014-11-15,34.9,28.2,21.0,29.3,24.9,18.9,96,88,63,30.01,29.88,19,3,29,0.11
2014-11-16,21.0,9.7,-10.7,19.0,2.9,-14.8,92,75,50,30.74,29.93,17,3,24,0.00
2014-11-17,26.1,-1.2,-18.9,7.9,-7.8,-23.4,88,75,38,31.02,30.74,9,1,15,0.09
2014-11-18,23.5,1.2,-14.6,10.4,-4.2,-18.8,91,79,52,31.07,30.90,3,0,4,0.07
2014-11-19,28.2,5.9,-9.0,13.6,0.9,-13.0,92,80,50,30.97,30.70,4,0,5,0.04
2014-11-20,32.7,11.4,-5.6,19.4,6.9,-9.0,92,82,48,30.75,30.55,6,0,7,0.00
2014-11-21,32.4,12.9,-0.9,18.9,8.3,-4.2,93,83,53,30.58,30.40,5,0,7,0.00
2014-11-22,32.5,15.9,-3.8,25.9,11.2,-7.2,94,82,55,30.63,30.06,8,1,9,0.00
2014-11-23,29.1,21.0,6.8,27.5,17.0,3.0,95,84,72,30.29,29.96,19,6,33,0.06
2014-11-24,22.5,8.6,-7.2,16.3,4.3,-11.4,91,83,67,30.85,30.29,19,3,25,0.00
2014-11-25,29.1,11.6,-9.2,22.8,7.1,-12.8,89,82,71,30.93,30.74,10,1,11,0.00
2014-11-26,41.7,32.3,13.3,27.1,23.9,10.6,92,72,53,30.74,30.40,24,7,26,0.02
2014-11-27,38.7,17.1,4.5,21.9,12.1,1.8,93,82,48,30.80,30.58,6,0,7,0.00
2014-11-28,36.0,13.9,0.7,19.6,8.7,-2.7,93,81,48,30.74,30.47,4,0,5,0.00
2014-11-29,37.0,15.7,-0.6,21.2,7.7,-4.0,92,72,44,30.47,30.23,9,1,12,0.00
2014-11-30,44.4,21.6,9.9,21.9,11.6,3.7,82,67,30,30.40,30.22,9,2,10,0.00
2014-12-1,40.8,24.0,10.0,26.8,16.6,7.2,92,74,51,30.51,30.37,10,2,13,0.00
2014-12-2,30.7,14.5,2.8,15.8,9.4,-0.2,92,81,48,30.61,30.47,4,0,5,0.00
2014-12-3,40.3,25.1,14.2,29.7,21.2,11.8,95,85,64,30.59,30.30,8,1,9,0.04
2014-12-4,34.5,26.9,19.6,31.1,24.3,18.0,96,90,76,30.36,30.18,5,0,6,0.00
2014-12-5,45.7,29.6,16.2,33.3,26.1,14.2,97,88,59,30.50,30.25,10,1,11,0.10
2014-12-6,39.6,22.8,13.3,27.5,19.2,11.1,95,86,61,30.65,30.50,6,1,8,0.01
2014-12-7,43.3,25.4,11.7,28.0,19.9,9.3,94,81,50,30.65,30.50,9,1,11,0.00
2014-12-8,34.9,14.7,3.4,18.9,9.5,0.1,94,81,48,30.87,30.65,6,0,7,0.00
2014-12-9,32.7,10.3,-3.1,14.4,4.0,-6.2,91,77,41,30.91,30.71,5,1,6,0.00
2014-12-10,29.7,10.6,-3.5,14.2,3.9,-6.5,91,76,41,30.86,30.68,7,0,9,0.00
2014-12-11,33.4,12.2,-2.6,16.7,6.3,-6.0,93,79,47,30.82,30.65,7,1,8,0.00
2014-12-12,30.6,17.4,3.7,22.3,13.2,0.7,94,84,67,30.75,30.47,6,0,6,0.00
2014-12-13,43.3,24.4,7.2,29.3,19.7,4.3,94,84,53,30.47,29.97,21,3,27,0.00
2014-12-14,29.7,26.0,17.6,26.2,20.7,13.5,93,80,71,30.14,29.88,18,5,23,0.09
2014-12-15,29.8,13.5,-0.6,15.4,7.6,-3.5,90,78,51,30.66,30.14,16,3,17,0.06
2014-12-16,28.6,12.1,-1.7,16.9,6.5,-4.9,92,79,54,30.74,30.51,4,0,6,0.00
2014-12-17,28.9,14.4,3.4,20.3,10.9,0.3,93,86,69,30.51,30.29,3,0,5,0.00
2014-12-18,30.9,17.8,6.4,20.3,13.3,3.9,93,83,59,30.46,30.31,8,1,8,0.02
2014-12-19,32.0,16.2,0.1,17.1,10.5,-3.1,92,79,52,30.54,30.41,13,3,16,0.00
2014-12-20,25.5,12.3,-1.7,17.6,7.6,-5.4,91,82,62,30.65,30.47,7,0,7,0.00
2014-12-21,37.9,26.3,12.7,30.6,22.2,10.6,93,85,70,30.48,29.90,36,8,46,0.01
2014-12-22,35.8,27.4,15.8,30.2,22.9,8.6,94,83,67,29.99,29.66,31,14,48,0.01
2014-12-23,21.0,8.9,-7.6,10.0,1.4,-11.6,91,72,52,30.69,29.99,17,5,22,0.00
2014-12-24,19.2,-0.8,-14.4,3.4,-6.7,-18.8,88,76,46,30.80,30.37,7,1,8,0.01
2014-12-25,27.0,13.6,1.9,17.6,8.4,-1.8,92,80,57,30.39,29.91,8,2,10,0.00
2014-12-26,20.1,6.1,-5.4,11.3,1.6,-9.0,91,82,63,30.51,29.96,11,1,15,0.01
2014-12-27,19.8,3.5,-10.8,4.8,-3.2,-14.8,88,74,49,30.81,30.51,11,2,16,0.00
2014-12-28,13.3,-0.7,-14.6,5.2,-5.6,-18.8,89,80,60,30.83,30.58,6,1,8,0.00
2014-12-29,21.6,9.8,0.1,13.8,6.1,-5.1,90,85,71,30.58,30.30,14,2,16,0.10
2014-12-30,17.2,-4.2,-20.6,4.8,-9.4,-25.1,88,78,53,30.84,30.44,7,1,11,0.06
2014-12-31,15.1,-2.1,-11.6,5.7,-6.9,-16.1,90,80,58,30.91,30.64,6,0,7,0.01
2015-1-1,23.4,3.3,-14.3,18.9,-0.2,-18.4,91,85,80,30.69,30.49,7,1,9,0.00
2015-1-2,19.0,-0.4,-13.0,5.0,-5.5,-17.1,89,79,52,30.65,30.46,7,1,9,0.02